Orbital Elements at Epoch 2454702.5 (2008-Aug-24.0) TDB
Reference: JPL K203/9 (heliocentric ecliptic J2000)
Element | Value | Uncertainty (1-sigma) | Units |
e | .3300667330034073 | 2.303e-07 | |
a | 3.890928150631438 | 2.3154e-07 | au |
q | 2.60666220760153 | 9.7429e-07 | au |
i | 14.09112981309247 | 1.9457e-05 | deg |
node | 247.8983368232365 | 6.605e-05 | deg |
peri | 354.881178691618 | 9.5384e-05 | deg |
M | 148.1936237575201 | 4.4039e-05 | deg |
tp | 2453548.501455958272 (2005-Jun-27.00145596) | 0.00029022 | TDB |
period | 2803.355942862829 7.68 | 0.00025023 6.851e-07 | d yr |
n | .1284175136291693 | 1.1463e-08 | deg/d |
Q | 5.175194093661346 | 3.0796e-07 | au |
|
Additional Model Parameters
Parameter | Value | Uncertainty (1-sigma) |
A1 [EST] | -1.087100297314223E-7 | 4.034E-9 |
A2 [EST] | 1.976424003113985E-9 | 7.553E-11 |
A3 [EST] | 8.530645011240852E-9 | 1.866E-9 |
|
| | Orbit Determination Parameters
Additional Information
|